Weather History for KVBT - November, 2012

Change the Weather History Date:

Thursday, November 29, 2012

  Actual Average (KFYV) Record (KFYV)
Temperature  
Mean Temperature 50 °F 42 °F  
Max Temperature 64 °F 53 °F 72 °F (2006)
Min Temperature 35 °F 31 °F 4 °F (1976)
Degree Days  
Heating Degree Days 16 23  
Month to date heating degree days 505  
Since 1 July heating degree days 805  
Moisture  
Dew Point 30 °F    
Average Humidity 50    
Maximum Humidity 75    
Minimum Humidity 28    
Precipitation  
Precipitation 0.00 in 0.14 in 1.74 in (2006)
Month to date precipitation 4.10  
Year to date precipitation 45.14  
Sea Level Pressure  
Sea Level Pressure 30.14 in    
Wind  
Wind Speed 7 mph (South)    
Max Wind Speed 17 mph    
Max Gust Speed 25 mph    
Visibility 10 miles    
Events      
T = Trace of Precipitation, MM = Missing Value Source: NWS Daily Summary

Daily Weather History Graph

Daily Weather History Graph

Search for Another Location

Airport or City:

Trip Planner

Search our weather history database for the weather conditions in past years. The results will help you decide how hot, cold, wet, or windy it might be!

Date:

Astronomy

Nov. 29, 2012 Rise Set
Actual Time 7:08 AM CST 5:02 PM CST
Civil Twilight 6:40 AM CST 5:30 PM CST
Nautical Twilight 6:08 AM CST 6:02 PM CST
Astronomical Twilight 5:37 AM CST 6:33 PM CST
Moon 6:05 PM CST (11/29) 7:55 AM CST (11/29)
Length of Visible Light 10h 50m
Length of Day
9h 53m
Full, 99% of the Moon is Illuminated
Nov 29
Full
Dec 6
Last Quarter
Dec 13
New
Dec 19
First Quarter
Dec 28
Full

Hourly Weather History & Observations

Time (CST) Temp. Windchill Dew Point Humidity Pressure Visibility Wind Dir Wind Speed Gust Speed Precip Events Conditions
12:35 AM 37.4 °F 33.8 °F 28.4 °F 70% 30.21 in 10.0 mi SE 4.6 mph - N/A   Clear
12:55 AM 37.4 °F 32.8 °F 28.4 °F 70% 30.20 in 10.0 mi SE 5.8 mph - N/A   Clear
1:15 AM 37.4 °F 33.8 °F 28.4 °F 70% 30.20 in 10.0 mi SE 4.6 mph - N/A   Clear
1:35 AM 37.4 °F - 28.4 °F 70% 30.20 in 10.0 mi Calm Calm - N/A   Clear
1:55 AM 37.4 °F 34.9 °F 28.4 °F 70% 30.20 in 10.0 mi SSE 3.5 mph - N/A   Clear
2:15 AM 37.4 °F 34.9 °F 28.4 °F 70% 30.20 in 10.0 mi SSE 3.5 mph - N/A   Clear
2:36 AM 37.4 °F 33.8 °F 28.4 °F 70% 30.21 in 10.0 mi SE 4.6 mph - N/A   Clear
2:55 AM 37.4 °F 34.9 °F 28.4 °F 70% 30.21 in 10.0 mi SE 3.5 mph - N/A   Clear
3:15 AM 37.4 °F 34.9 °F 28.4 °F 70% 30.21 in 10.0 mi SE 3.5 mph - N/A   Clear
3:35 AM 37.4 °F 34.9 °F 28.4 °F 70% 30.20 in 10.0 mi SE 3.5 mph - N/A   Clear
3:55 AM 35.6 °F 31.7 °F 28.4 °F 75% 30.20 in 10.0 mi SSE 4.6 mph - N/A   Clear
4:15 AM 35.6 °F 30.7 °F 28.4 °F 75% 30.20 in 10.0 mi South 5.8 mph - N/A   Clear
4:55 AM 37.4 °F 31.4 °F 28.4 °F 70% 30.19 in 10.0 mi South 8.1 mph - N/A   Clear
5:15 AM 39.2 °F 35.9 °F 28.4 °F 65% 30.20 in 10.0 mi South 4.6 mph - N/A   Clear
5:55 AM 39.2 °F 34.2 °F 28.4 °F 65% 30.20 in 10.0 mi South 6.9 mph - N/A   Clear
6:15 AM 39.2 °F 34.2 °F 28.4 °F 65% 30.19 in 10.0 mi South 6.9 mph - N/A   Clear
6:35 AM 42.8 °F 37.5 °F 28.4 °F 57% 30.19 in 10.0 mi South 9.2 mph - N/A   Clear
6:56 AM 42.8 °F 38.6 °F 28.4 °F 57% 30.20 in 10.0 mi South 6.9 mph - N/A   Clear
7:15 AM 42.8 °F 39.3 °F 28.4 °F 57% 30.20 in 10.0 mi South 5.8 mph - N/A   Clear
7:35 AM 42.8 °F 38.0 °F 28.4 °F 57% 30.20 in 10.0 mi South 8.1 mph - N/A   Clear
8:15 AM 46.4 °F 42.9 °F 30.2 °F 53% 30.20 in 10.0 mi South 6.9 mph - N/A   Clear
8:35 AM 48.2 °F - 30.2 °F 50% 30.20 in 10.0 mi South 8.1 mph - N/A   Clear
8:55 AM 48.2 °F - 32.0 °F 54% 30.20 in 10.0 mi South 11.5 mph - N/A   Clear
9:16 AM 51.8 °F - 32.0 °F 47% 30.20 in 10.0 mi South 11.5 mph 16.1 mph N/A   Clear
9:35 AM 51.8 °F - 32.0 °F 47% 30.19 in 10.0 mi South 11.5 mph 17.3 mph N/A   Clear
10:35 AM 55.4 °F - 33.8 °F 44% 30.19 in 10.0 mi SSW 11.5 mph 18.4 mph N/A   Clear
10:55 AM 57.2 °F - 33.8 °F 41% 30.18 in 10.0 mi SSW 10.4 mph 16.1 mph N/A   Clear
11:15 AM 57.2 °F - 33.8 °F 41% 30.18 in 10.0 mi SSW 15.0 mph 25.3 mph N/A   Clear
11:55 AM 60.8 °F - 33.8 °F 36% 30.15 in 10.0 mi SSW 16.1 mph 24.2 mph N/A   Clear
12:15 PM 60.8 °F - 33.8 °F 36% 30.14 in 10.0 mi South 15.0 mph 24.2 mph N/A   Clear
12:35 PM 62.6 °F - 33.8 °F 34% 30.14 in 10.0 mi SSW 12.7 mph 18.4 mph N/A   Clear
12:55 PM 62.6 °F - 32.0 °F 32% 30.13 in 10.0 mi SSW 15.0 mph 20.7 mph N/A   Clear
1:15 PM 62.6 °F - 32.0 °F 32% 30.13 in 10.0 mi South 15.0 mph 21.9 mph N/A   Clear
1:35 PM 62.6 °F - 32.0 °F 32% 30.12 in 10.0 mi SSW 13.8 mph 17.3 mph N/A   Clear
1:55 PM 64.4 °F - 30.2 °F 28% 30.11 in 10.0 mi SSW 13.8 mph - N/A   Clear
2:15 PM 64.4 °F - 30.2 °F 28% 30.11 in 10.0 mi South 13.8 mph 20.7 mph N/A   Clear
2:35 PM 62.6 °F - 32.0 °F 32% 30.11 in 10.0 mi SSW 17.3 mph 20.7 mph N/A   Clear
2:56 PM 62.6 °F - 30.2 °F 30% 30.10 in 10.0 mi SSW 11.5 mph 23.0 mph N/A   Clear
3:15 PM 62.6 °F - 32.0 °F 32% 30.10 in 10.0 mi South 11.5 mph 19.6 mph N/A   Clear
3:35 PM 62.6 °F - 30.2 °F 30% 30.09 in 10.0 mi South 13.8 mph 20.7 mph N/A   Clear
3:56 PM 60.8 °F - 30.2 °F 31% 30.09 in 10.0 mi SSW 11.5 mph 18.4 mph N/A   Clear
4:15 PM 60.8 °F - 32.0 °F 34% 30.09 in 10.0 mi South 12.7 mph 16.1 mph N/A   Clear
4:35 PM 59.0 °F - 32.0 °F 36% 30.09 in 10.0 mi South 9.2 mph 16.1 mph N/A   Clear
4:56 PM 57.2 °F - 32.0 °F 38% 30.09 in 10.0 mi South 9.2 mph 16.1 mph N/A   Clear
5:15 PM 55.4 °F - 30.2 °F 38% 30.09 in 10.0 mi South 8.1 mph - N/A   Clear
5:35 PM 55.4 °F - 30.2 °F 38% 30.09 in 10.0 mi South 8.1 mph - N/A   Clear
6:15 PM 53.6 °F - 30.2 °F 41% 30.07 in 10.0 mi SSE 8.1 mph - N/A   Clear
6:35 PM 51.8 °F - 30.2 °F 44% 30.07 in 10.0 mi SSE 9.2 mph - N/A   Clear
6:55 PM 51.8 °F - 30.2 °F 44% 30.07 in 10.0 mi South 8.1 mph - N/A   Clear
7:15 PM 50.0 °F - 30.2 °F 47% 30.07 in 10.0 mi SSE 6.9 mph - N/A   Clear
7:35 PM 48.2 °F - 30.2 °F 50% 30.07 in 10.0 mi SSE 6.9 mph - N/A   Clear
7:55 PM 46.4 °F 42.9 °F 28.4 °F 50% 30.06 in 10.0 mi SSE 6.9 mph - N/A   Clear
8:15 PM 46.4 °F 42.4 °F 28.4 °F 50% 30.06 in 10.0 mi SSE 8.1 mph - N/A   Clear
8:35 PM - - - N/A% 30.06 in 10.0 mi SSE 8.1 mph - N/A   Clear
9:35 PM 44.6 °F 43.1 °F 28.4 °F 53% 30.09 in 10.0 mi South 3.5 mph - N/A   Clear
9:55 PM 42.8 °F - 28.4 °F 57% 30.10 in 10.0 mi Calm Calm - N/A   Clear
10:15 PM 41.0 °F - 30.2 °F 65% 30.11 in 10.0 mi Calm Calm - N/A   Clear
10:35 PM 42.8 °F - 28.4 °F 57% 30.12 in 10.0 mi Calm Calm - N/A   Clear
10:55 PM 44.6 °F 42.2 °F 26.6 °F 49% 30.11 in 10.0 mi SSW 4.6 mph - N/A   Clear
11:15 PM 44.6 °F 41.4 °F 26.6 °F 49% 30.11 in 10.0 mi South 5.8 mph - N/A   Clear
11:55 PM 48.2 °F - 28.4 °F 46% 30.12 in 10.0 mi South 6.9 mph - N/A   Clear